Regional Weather Roundup
Issued by NWS

Home | Current Version | Previous Version | Graphics & Text | Print | Product List | Glossary On
Versions: 1 2 3 4 5 6 7 8 9 10 11 12 13 14 15 16 17 18 19 20 21 22 23 24 25 26 27 28 29 30 31 32 33 34 35 36 37 38 39 40 41 42 43 44 45 46 47 48 49 50
443
ASUS45 KBOI 192210
RWRID

IDAHO REGIONAL WEATHER ROUNDUP
NATIONAL WEATHER SERVICE BOISE ID
400 PM MDT TUE SEP 19 2017

NOTE: "FAIR" INDICATES FEW OR NO CLOUDS BELOW 12000 FEET
WITH NO SIGNIFICANT WEATHER AND/OR OBSTRUCTIONS TO VISIBILITY

IDZ012-014-192300-
SOUTHWEST IDAHO


CITY           SKY/WX    TMP DP  RH WIND       PRES   REMARKS
BOISE          CLOUDY    58  35  42 W13       29.88F
CALDWELL       CLOUDY    60  34  37 SW12      29.86F
MOUNTAIN HOME  PTSUNNY   60  33  35 W18       29.89F
$$

IDZ016-017-192300-
SOUTHCENTRAL IDAHO


CITY           SKY/WX    TMP DP  RH WIND       PRES   REMARKS
BURLEY         MOSUNNY   52  37  56 W12G23    29.91S
JEROME         MOSUNNY   55  36  48 SW20G29   29.91S
TWIN FALLS     LGT RAIN  45  40  82 W23G33    29.94R
$$

IDZ019>023-192300-
SOUTHEAST IDAHO


CITY           SKY/WX    TMP DP  RH WIND       PRES   REMARKS
IDAHO FALLS    CLOUDY    54  32  43 SW22G33   29.82S
POCATELLO      CLOUDY    49  37  63 W31G38    29.91R
REXBURG        CLOUDY    49  29  46 NW9G33    29.80R
$$

IDZ006-010-011-018-031-032-192300-
CENTRAL IDAHO MOUNTAINS


CITY           SKY/WX    TMP DP  RH WIND       PRES   REMARKS
MCCALL         LGT RAIN  40  38  93 S14       29.83R WCI  32
HAILEY         PTSUNNY   48  32  53 W8G20     29.89R
STANLEY          N/A     36  34  92 SE8       29.88R WCI  30
SALMON         CLOUDY    52  33  48 VRB5      29.75S
CHALLIS        PTSUNNY   52  27  38 SW16G28   29.78F
$$

IDZ002-004-006-007-026-192300-
NORTHERN IDAHO


CITY           SKY/WX    TMP DP  RH WIND       PRES   REMARKS
LEWISTON       CLOUDY    57  41  55 NW5       29.76S
LOWELL           N/A     52  48  86 CALM      29.78F
COEUR D`ALENE  LGT RAIN  47  43  86 VRB6      29.73R
MULLAN PASS    SNOW      32  30  92 VRB5      29.70S VSB 1/4 WCI  27
$$




USA.gov is the U.S. government's official web portal to all federal, state and local government web resources and services.